| time (UTC) | temp C | wind direction | speed KPH | gust KPH | rain 1hr cm | rain 24hr cm | rain mn cm | humidity % | barometer mb |
| 20260504100504 | 12 | 310 | 3.2 | 3.2 | 0.00 | 0.00 | 0.00 | 44 | 1001.0 |
| 20260504082004 | 11 | 310 | 3.2 | 3.2 | 0.00 | 0.00 | 0.00 | 48 | 1002.0 |
| 20260504081503 | 11 | 310 | 3.2 | 3.2 | 0.00 | 0.00 | 0.00 | 48 | 1002.0 |
| 20260504080504 | 11 | 310 | 3.2 | 3.2 | 0.00 | 0.00 | 0.00 | 48 | 1002.0 |
| 20260504050504 | 11 | 310 | 3.2 | 3.2 | 0.00 | 0.00 | 0.00 | 44 | 1004.7 |
| 20260504050003 | 10 | 310 | 3.2 | 3.2 | 0.00 | 0.00 | 0.00 | 51 | 1005.4 |
| 20260504045504 | 10 | 310 | 3.2 | 3.2 | 0.00 | 0.00 | 0.00 | 51 | 1005.4 |
| 20260504045004 | 10 | 310 | 3.2 | 3.2 | 0.00 | 0.00 | 0.00 | 51 | 1005.4 |
| 20260504044504 | 10 | 310 | 3.2 | 3.2 | 0.00 | 0.00 | 0.00 | 51 | 1005.4 |
| 20260504044004 | 10 | 310 | 3.2 | 3.2 | 0.00 | 0.00 | 0.00 | 51 | 1005.4 |
| 20260504043003 | 10 | 310 | 3.2 | 3.2 | 0.00 | 0.00 | 0.00 | 51 | 1005.4 |
| 20260504042004 | 10 | 310 | 3.2 | 3.2 | 0.00 | 0.00 | 0.00 | 51 | 1005.4 |
| 20260504041504 | 10 | 310 | 3.2 | 3.2 | 0.00 | 0.00 | 0.00 | 51 | 1005.4 |
| 20260504041004 | 10 | 310 | 3.2 | 3.2 | 0.00 | 0.00 | 0.00 | 51 | 1005.4 |
| 20260504040503 | 10 | 310 | 3.2 | 3.2 | 0.00 | 0.00 | 0.00 | 51 | 1005.4 |
| 20260504040004 | 11 | 310 | 3.2 | 3.2 | 0.00 | 0.00 | 0.00 | 46 | 1005.8 |
| 20260504035503 | 11 | 310 | 3.2 | 3.2 | 0.00 | 0.00 | 0.00 | 46 | 1005.8 |
| 20260504035004 | 11 | 310 | 3.2 | 3.2 | 0.00 | 0.00 | 0.00 | 46 | 1005.8 |
| 20260504034504 | 11 | 310 | 3.2 | 3.2 | 0.00 | 0.00 | 0.00 | 46 | 1005.8 |
| 20260504034004 | 11 | 310 | 3.2 | 3.2 | 0.00 | 0.00 | 0.00 | 46 | 1005.8 |
| 20260504033504 | 11 | 310 | 3.2 | 3.2 | 0.00 | 0.00 | 0.00 | 46 | 1005.8 |
| 20260504033003 | 11 | 310 | 3.2 | 3.2 | 0.00 | 0.00 | 0.00 | 46 | 1005.8 |
| 20260504032504 | 11 | 310 | 3.2 | 3.2 | 0.00 | 0.00 | 0.00 | 46 | 1005.8 |
| 20260504032003 | 11 | 310 | 3.2 | 3.2 | 0.00 | 0.00 | 0.00 | 46 | 1005.8 |
| 20260504031503 | 11 | 310 | 3.2 | 3.2 | 0.00 | 0.00 | 0.00 | 46 | 1005.8 |
| 20260504031004 | 11 | 310 | 3.2 | 3.2 | 0.00 | 0.00 | 0.00 | 46 | 1005.8 |
| 20260504030503 | 11 | 310 | 3.2 | 3.2 | 0.00 | 0.00 | 0.00 | 46 | 1005.8 |
| 20260504030004 | 16 | 310 | 3.2 | 3.2 | 0.00 | 0.00 | 0.00 | 30 | 1006.1 |
| 20260504024004 | 16 | 310 | 3.2 | 3.2 | 0.00 | 0.00 | 0.00 | 30 | 1006.1 |
| 20260504023504 | 16 | 310 | 3.2 | 3.2 | 0.00 | 0.00 | 0.00 | 30 | 1006.1 |
| 20260504023004 | 16 | 310 | 3.2 | 3.2 | 0.00 | 0.00 | 0.00 | 30 | 1006.1 |
| 20260504022503 | 16 | 310 | 3.2 | 3.2 | 0.00 | 0.00 | 0.00 | 30 | 1006.1 |
| 20260504022004 | 16 | 310 | 3.2 | 3.2 | 0.00 | 0.00 | 0.00 | 30 | 1006.1 |
| 20260504021503 | 16 | 310 | 3.2 | 3.2 | 0.00 | 0.00 | 0.00 | 30 | 1006.1 |
| 20260504021004 | 16 | 310 | 3.2 | 3.2 | 0.00 | 0.00 | 0.00 | 30 | 1006.1 |
| 20260504020503 | 16 | 310 | 3.2 | 3.2 | 0.00 | 0.00 | 0.00 | 30 | 1006.1 |
| 20260504020004 | 16 | 310 | 3.2 | 3.2 | 0.00 | 0.00 | 0.00 | 32 | 1006.1 |
| 20260504015504 | 16 | 310 | 3.2 | 3.2 | 0.00 | 0.00 | 0.00 | 32 | 1006.1 |
| 20260504015004 | 16 | 310 | 3.2 | 3.2 | 0.00 | 0.00 | 0.00 | 32 | 1006.1 |
| 20260504014503 | 16 | 310 | 3.2 | 3.2 | 0.00 | 0.00 | 0.00 | 32 | 1006.1 |
| 20260504014004 | 16 | 310 | 3.2 | 3.2 | 0.00 | 0.00 | 0.00 | 32 | 1006.1 |
| 20260504013503 | 16 | 310 | 3.2 | 3.2 | 0.00 | 0.00 | 0.00 | 32 | 1006.1 |
| 20260504013004 | 16 | 310 | 3.2 | 3.2 | 0.00 | 0.00 | 0.00 | 32 | 1006.1 |
| 20260504012503 | 16 | 310 | 3.2 | 3.2 | 0.00 | 0.00 | 0.00 | 32 | 1006.1 |
| 20260504012004 | 16 | 310 | 3.2 | 3.2 | 0.00 | 0.00 | 0.00 | 32 | 1006.1 |
| 20260504011504 | 16 | 310 | 3.2 | 3.2 | 0.00 | 0.00 | 0.00 | 32 | 1006.1 |
| 20260504011004 | 16 | 310 | 3.2 | 3.2 | 0.00 | 0.00 | 0.00 | 32 | 1006.1 |
| 20260504010503 | 16 | 310 | 3.2 | 3.2 | 0.00 | 0.00 | 0.00 | 32 | 1006.1 |
| 20260504010004 | 20 | 310 | 3.2 | 3.2 | 0.00 | 0.00 | 0.00 | 25 | 1006.1 |
| 20260504005504 | 20 | 310 | 3.2 | 3.2 | 0.00 | 0.00 | 0.00 | 25 | 1006.1 |
| 20260504005004 | 20 | 310 | 3.2 | 3.2 | 0.00 | 0.00 | 0.00 | 25 | 1006.1 |
| 20260504004504 | 20 | 310 | 3.2 | 3.2 | 0.00 | 0.00 | 0.00 | 25 | 1006.1 |
| 20260504004003 | 20 | 310 | 3.2 | 3.2 | 0.00 | 0.00 | 0.00 | 25 | 1006.1 |
| 20260504003004 | 20 | 310 | 3.2 | 3.2 | 0.00 | 0.00 | 0.00 | 25 | 1006.1 |
| 20260504002504 | 20 | 310 | 3.2 | 3.2 | 0.00 | 0.00 | 0.00 | 25 | 1006.1 |
| 20260504001504 | 20 | 310 | 3.2 | 3.2 | 0.00 | 0.00 | 0.00 | 25 | 1006.1 |
| 20260504001003 | 20 | 310 | 3.2 | 3.2 | 0.00 | 0.00 | 0.00 | 25 | 1006.1 |
| 20260504000003 | 21 | 310 | 3.2 | 3.2 | 0.00 | 0.00 | 0.00 | 24 | 1006.4 |
| 20260503235503 | 21 | 310 | 3.2 | 3.2 | 0.00 | 0.00 | 0.00 | 24 | 1006.4 |
| 20260503235004 | 21 | 310 | 3.2 | 3.2 | 0.00 | 0.00 | 0.00 | 24 | 1006.4 |
| 20260503234504 | 21 | 310 | 3.2 | 3.2 | 0.00 | 0.00 | 0.00 | 24 | 1006.4 |
| 20260503233503 | 21 | 310 | 3.2 | 3.2 | 0.00 | 0.00 | 0.00 | 24 | 1006.4 |
| 20260503233004 | 21 | 310 | 3.2 | 3.2 | 0.00 | 0.00 | 0.00 | 24 | 1006.4 |
| 20260503232503 | 21 | 310 | 3.2 | 3.2 | 0.00 | 0.00 | 0.00 | 24 | 1006.4 |
| 20260503232003 | 21 | 310 | 3.2 | 3.2 | 0.00 | 0.00 | 0.00 | 24 | 1006.4 |
| 20260503231504 | 21 | 310 | 3.2 | 3.2 | 0.00 | 0.00 | 0.00 | 24 | 1006.4 |
| 20260503231004 | 21 | 310 | 3.2 | 3.2 | 0.00 | 0.00 | 0.00 | 24 | 1006.4 |
| 20260503230503 | 21 | 310 | 3.2 | 3.2 | 0.00 | 0.00 | 0.00 | 24 | 1006.4 |
| 20260503230004 | 21 | 310 | 3.2 | 3.2 | 0.00 | 0.00 | 0.00 | 24 | 1006.4 |
| 20260503225504 | 21 | 310 | 3.2 | 3.2 | 0.00 | 0.00 | 0.00 | 24 | 1006.4 |
| 20260503225004 | 21 | 310 | 3.2 | 3.2 | 0.00 | 0.00 | 0.00 | 24 | 1006.4 |
| 20260503224003 | 21 | 310 | 3.2 | 3.2 | 0.00 | 0.00 | 0.00 | 24 | 1006.4 |
| 20260503223004 | 21 | 310 | 3.2 | 3.2 | 0.00 | 0.00 | 0.00 | 24 | 1006.4 |
| 20260503222504 | 21 | 310 | 3.2 | 3.2 | 0.00 | 0.00 | 0.00 | 24 | 1006.4 |
| 20260503221503 | 21 | 310 | 3.2 | 3.2 | 0.00 | 0.00 | 0.00 | 24 | 1006.4 |
| 20260503221004 | 21 | 310 | 3.2 | 3.2 | 0.00 | 0.00 | 0.00 | 24 | 1006.4 |
| 20260503220504 | 21 | 310 | 3.2 | 3.2 | 0.00 | 0.00 | 0.00 | 24 | 1006.4 |
| 20260503220004 | 22 | 310 | 3.2 | 3.2 | 0.00 | 0.00 | 0.00 | 22 | 1006.8 |
| 20260503215004 | 22 | 310 | 3.2 | 3.2 | 0.00 | 0.00 | 0.00 | 22 | 1006.8 |
| 20260503214003 | 22 | 310 | 3.2 | 3.2 | 0.00 | 0.00 | 0.00 | 22 | 1006.8 |
| 20260503213004 | 22 | 310 | 3.2 | 3.2 | 0.00 | 0.00 | 0.00 | 22 | 1006.8 |
| 20260503212504 | 22 | 310 | 3.2 | 3.2 | 0.00 | 0.00 | 0.00 | 22 | 1006.8 |
| 20260503212004 | 22 | 310 | 3.2 | 3.2 | 0.00 | 0.00 | 0.00 | 22 | 1006.8 |
| 20260503211004 | 22 | 310 | 3.2 | 3.2 | 0.00 | 0.00 | 0.00 | 22 | 1006.8 |
| 20260503210504 | 22 | 310 | 3.2 | 3.2 | 0.00 | 0.00 | 0.00 | 22 | 1006.8 |
| 20260503210003 | 22 | 310 | 3.2 | 3.2 | 0.00 | 0.00 | 0.00 | 24 | 1007.1 |
| 20260503205504 | 22 | 310 | 3.2 | 3.2 | 0.00 | 0.00 | 0.00 | 24 | 1007.1 |
| 20260503205004 | 22 | 310 | 3.2 | 3.2 | 0.00 | 0.00 | 0.00 | 24 | 1007.1 |
| 20260503204504 | 22 | 310 | 3.2 | 3.2 | 0.00 | 0.00 | 0.00 | 24 | 1007.1 |
| 20260503204003 | 22 | 310 | 3.2 | 3.2 | 0.00 | 0.00 | 0.00 | 24 | 1007.1 |
| 20260503203504 | 22 | 310 | 3.2 | 3.2 | 0.00 | 0.00 | 0.00 | 24 | 1007.1 |
| 20260503202503 | 22 | 310 | 3.2 | 3.2 | 0.00 | 0.00 | 0.00 | 24 | 1007.1 |
| 20260503202004 | 22 | 310 | 3.2 | 3.2 | 0.00 | 0.00 | 0.00 | 24 | 1007.1 |
| 20260503201004 | 22 | 310 | 3.2 | 3.2 | 0.00 | 0.00 | 0.00 | 24 | 1007.1 |
| 20260503195504 | 21 | 310 | 3.2 | 3.2 | 0.00 | 0.00 | 0.00 | 25 | 1007.1 |
| 20260503195004 | 21 | 310 | 3.2 | 3.2 | 0.00 | 0.00 | 0.00 | 25 | 1007.1 |
| 20260503194503 | 21 | 310 | 3.2 | 3.2 | 0.00 | 0.00 | 0.00 | 25 | 1007.1 |
| 20260503194004 | 21 | 310 | 3.2 | 3.2 | 0.00 | 0.00 | 0.00 | 25 | 1007.1 |
| 20260503192504 | 21 | 310 | 3.2 | 3.2 | 0.00 | 0.00 | 0.00 | 25 | 1007.1 |
| 20260503191003 | 21 | 310 | 3.2 | 3.2 | 0.00 | 0.00 | 0.00 | 25 | 1007.1 |
| 20260503190503 | 21 | 310 | 3.2 | 3.2 | 0.00 | 0.00 | 0.00 | 25 | 1007.1 |
| 20260503185004 | 20 | 310 | 3.2 | 3.2 | 0.00 | 0.00 | 0.00 | 29 | 1007.5 |
| 20260503184503 | 20 | 310 | 3.2 | 3.2 | 0.00 | 0.00 | 0.00 | 29 | 1007.5 |
| 20260503184004 | 20 | 310 | 3.2 | 3.2 | 0.00 | 0.00 | 0.00 | 29 | 1007.5 |
| 20260503183504 | 20 | 310 | 3.2 | 3.2 | 0.00 | 0.00 | 0.00 | 29 | 1007.5 |
| 20260503183004 | 20 | 310 | 3.2 | 3.2 | 0.00 | 0.00 | 0.00 | 29 | 1007.5 |
| 20260503182504 | 20 | 310 | 3.2 | 3.2 | 0.00 | 0.00 | 0.00 | 29 | 1007.5 |
| 20260503182005 | 20 | 310 | 3.2 | 3.2 | 0.00 | 0.00 | 0.00 | 29 | 1007.5 |
| 20260503181505 | 20 | 310 | 3.2 | 3.2 | 0.00 | 0.00 | 0.00 | 29 | 1007.5 |
| 20260503180503 | 20 | 310 | 3.2 | 3.2 | 0.00 | 0.00 | 0.00 | 29 | 1007.5 |
| 20260503180004 | 19 | 310 | 3.2 | 3.2 | 0.00 | 0.00 | 0.00 | 34 | 1007.8 |
| 20260503175504 | 19 | 310 | 3.2 | 3.2 | 0.00 | 0.00 | 0.00 | 34 | 1007.8 |
| 20260503175003 | 19 | 310 | 3.2 | 3.2 | 0.00 | 0.00 | 0.00 | 34 | 1007.8 |
| 20260503174004 | 19 | 310 | 3.2 | 3.2 | 0.00 | 0.00 | 0.00 | 34 | 1007.8 |
| 20260503173504 | 19 | 310 | 3.2 | 3.2 | 0.00 | 0.00 | 0.00 | 34 | 1007.8 |
| 20260503172504 | 19 | 310 | 3.2 | 3.2 | 0.00 | 0.00 | 0.00 | 34 | 1007.8 |
| 20260503172005 | 19 | 310 | 3.2 | 3.2 | 0.00 | 0.00 | 0.00 | 34 | 1007.8 |
| 20260503171004 | 19 | 310 | 3.2 | 3.2 | 0.00 | 0.00 | 0.00 | 34 | 1007.8 |
| 20260503170504 | 19 | 310 | 3.2 | 3.2 | 0.00 | 0.00 | 0.00 | 34 | 1007.8 |
| 20260503151003 | 15 | 310 | 3.2 | 3.2 | 0.00 | 0.00 | 0.00 | 42 | 1006.8 |
| 20260503150503 | 15 | 310 | 3.2 | 3.2 | 0.00 | 0.00 | 0.00 | 42 | 1006.8 |
| 20260503131003 | 11 | 310 | 3.2 | 3.2 | 0.00 | 0.00 | 0.00 | 48 | 1006.8 |
| 20260503130503 | 11 | 310 | 3.2 | 3.2 | 0.00 | 0.00 | 0.00 | 48 | 1006.8 |